Weather History for KVAD - October, 2012

Change the Weather History Date:

Wednesday, October 17, 2012

  Actual Average Record
Temperature  
Mean Temperature 66 °F -  
Max Temperature 77 °F 77 °F 87 °F (2013)
Min Temperature 56 °F 56 °F 44 °F (2001)
Cooling Degree Days 2    
Growing Degree Days 16 (Base 50)    
Moisture  
Dew Point 56 °F    
Average Humidity 76    
Maximum Humidity 96    
Minimum Humidity 46    
Precipitation  
Precipitation 0.00 in - - ()
Sea Level Pressure  
Sea Level Pressure 29.90 in    
Wind  
Wind Speed 2 mph (East)    
Max Wind Speed 7 mph    
Max Gust Speed -    
Visibility 10 miles    
Events      
Averages and records for this station are not official NWS values.
T = Trace of Precipitation, MM = Missing Value Source: NWS Daily Summary

Daily Weather History Graph

Daily Weather History Graph

Search for Another Location

Airport or City:

Trip Planner

Search our weather history database for the weather conditions in past years. The results will help you decide how hot, cold, wet, or windy it might be!

Date:

Astronomy

Oct. 17, 2012 Rise Set
Actual Time 7:37 AM EDT 6:58 PM EDT
Civil Twilight 7:12 AM EDT 7:22 PM EDT
Nautical Twilight 6:44 AM EDT 7:50 PM EDT
Astronomical Twilight 6:16 AM EDT 8:18 PM EDT
Moon 9:58 AM EDT (10/17) 8:45 PM EDT (10/17)
Length of Visible Light 12h 10m
Length of Day
11h 21m
Waxing Crescent, 7% of the Moon is Illuminated
Oct 17
Waxing Crescent
Oct 21
First Quarter
Oct 29
Full
Nov 6
Last Quarter
Nov 13
New

Hourly Weather History & Observations

Time (EDT) Temp. Dew Point Humidity Pressure Visibility Wind Dir Wind Speed Gust Speed Precip Events Conditions
12:55 AM 59.0 °F 53.2 °F 81% 29.90 in 10.0 mi Calm Calm - N/A   Scattered Clouds
1:55 AM 58.1 °F 54.0 °F 86% 29.90 in 10.0 mi Calm Calm - N/A   Partly Cloudy
2:55 AM 56.7 °F 54.1 °F 91% 29.89 in 10.0 mi Calm Calm - N/A   Clear
3:55 AM 56.5 °F 54.3 °F 92% 29.90 in 10.0 mi Calm Calm - N/A   Scattered Clouds
4:55 AM 56.5 °F 54.7 °F 94% 29.90 in 10.0 mi Calm Calm - N/A   Mostly Cloudy
5:55 AM 56.7 °F 55.4 °F 96% 29.90 in 10.0 mi Calm Calm - N/A   Overcast
6:55 AM 57.2 °F 55.6 °F 94% 29.92 in 10.0 mi Calm Calm - N/A   Mostly Cloudy
7:55 AM 57.2 °F 55.8 °F 95% 29.93 in 10.0 mi Calm Calm - N/A   Partly Cloudy
8:55 AM 58.3 °F 55.9 °F 92% 29.96 in 10.0 mi Calm Calm - N/A   Clear
9:55 AM 61.0 °F 55.6 °F 82% 29.99 in 10.0 mi Calm Calm - N/A   Partly Cloudy
10:55 AM 63.9 °F 55.8 °F 75% 29.96 in 10.0 mi NE 5.8 mph - N/A   Partly Cloudy
11:55 AM 69.3 °F 56.7 °F 64% 29.95 in 10.0 mi NE 5.8 mph - N/A   Scattered Clouds
12:55 PM 74.1 °F 53.2 °F 48% 29.94 in 10.0 mi SE 6.9 mph - N/A   Scattered Clouds
1:55 PM 75.2 °F 53.1 °F 46% 29.91 in 10.0 mi Variable 6.9 mph - N/A   Clear
2:55 PM 75.9 °F 55.9 °F 50% 29.87 in 10.0 mi Variable 3.5 mph - N/A   Clear
3:55 PM 77.4 °F 55.6 °F 47% 29.86 in 10.0 mi Variable 5.8 mph - N/A   Clear
4:55 PM 76.5 °F 55.8 °F 49% 29.86 in 10.0 mi SE 4.6 mph - N/A   Clear
5:55 PM 75.4 °F 56.5 °F 52% 29.84 in 10.0 mi SE 4.6 mph - N/A   Clear
6:55 PM 70.7 °F 59.2 °F 67% 29.85 in 10.0 mi East 4.6 mph - N/A   Clear
7:55 PM 67.5 °F 59.9 °F 77% 29.86 in 10.0 mi ESE 4.6 mph - N/A   Clear
8:55 PM 66.0 °F 60.1 °F 81% 29.89 in 10.0 mi East 4.6 mph - N/A   Clear
9:55 PM 64.6 °F 60.1 °F 85% 29.90 in 10.0 mi Calm Calm - N/A   Clear
10:55 PM 62.8 °F 59.7 °F 90% 29.90 in 10.0 mi Calm Calm - N/A   Clear
11:55 PM 62.1 °F 60.8 °F 96% 29.89 in 10.0 mi East 4.6 mph - N/A   Clear